DW3471 Weather Reports


Display with metric or nautical units.
time (UTC)temp
F
wind
direction
speed
MPH
gust
MPH
rain 1hr
in
rain 24hr
in
rain mn
in
humidity
%
barometer
mb
20200402193904 55 319 7.0 22.0 0.00 0.00 0.00 42 1005.4
20200402192903 56 323 9.0 19.0 0.00 0.00 0.00 40 1005.8
20200402191902 56 326 7.0 14.0 0.00 0.00 0.00 42 1005.4
20200402190902 56 318 7.0 14.0 0.00 0.00 0.00 40 1005.8
20200402185901 56 315 6.0 19.0 0.00 0.00 0.00 41 1005.8
20200402184900 56 300 7.0 12.0 0.00 0.00 0.00 42 1005.8
20200402183859 55 294 7.0 13.0 0.00 0.00 0.00 42 1005.8
20200402182859 55 289 6.0 16.0 0.00 0.00 0.00 43 1005.8
20200402181858 55 287 7.0 14.0 0.00 0.00 0.00 43 1005.8
20200402180857 55 267 8.0 17.0 0.00 0.00 0.00 42 1005.8
20200402175857 55 255 8.0 18.0 0.00 0.00 0.00 43 1006.1
20200402174856 54 303 8.0 18.0 0.00 0.00 0.00 43 1006.1
20200402173855 54 296 7.0 20.0 0.00 0.00 0.00 42 1006.4
20200402172854 54 306 5.0 13.0 0.00 0.00 0.00 45 1006.4
20200402171854 53 307 5.0 19.0 0.00 0.00 0.00 43 1006.8
20200402170853 53 276 8.0 19.0 0.00 0.00 0.00 44 1006.8
20200402165852 53 299 5.0 21.0 0.00 0.00 0.00 44 1006.8
20200402164852 53 305 4.0 14.0 0.00 0.00 0.00 44 1006.8
20200402163851 53 311 8.0 15.0 0.00 0.00 0.00 44 1007.1
20200402162850 53 289 5.0 14.0 0.00 0.00 0.00 44 1007.1
20200402161850 53 267 5.0 12.0 0.00 0.00 0.00 43 1007.1
20200402160849 52 328 7.0 14.0 0.00 0.00 0.00 44 1007.5
20200402155848 51 301 5.0 16.0 0.00 0.00 0.00 45 1007.5
20200402154848 51 289 6.0 18.0 0.00 0.00 0.00 46 1007.5
20200402153847 50 270 5.0 16.0 0.00 0.00 0.00 46 1007.5
20200402152847 50 300 8.0 14.0 0.00 0.00 0.00 46 1007.8
20200402151846 50 301 5.0 13.0 0.00 0.00 0.00 48 1007.8
20200402150845 49 295 4.0 12.0 0.00 0.00 0.00 51 1007.8
20200402145845 48 296 8.0 15.0 0.00 0.00 0.00 48 1008.1
20200402144844 48 283 5.0 15.0 0.00 0.00 0.00 49 1008.1
20200402143844 47 285 4.0 16.0 0.00 0.00 0.00 51 1008.1
20200402142843 46 301 5.0 20.0 0.00 0.00 0.00 51 1008.5
20200402141842 46 325 7.0 13.0 0.00 0.00 0.00 52 1008.5
20200402140841 45 327 8.0 21.0 0.00 0.00 0.00 52 1008.8
20200402135841 45 307 6.0 11.0 0.00 0.00 0.00 54 1008.8
20200402134840 44 283 5.0 13.0 0.00 0.00 0.00 56 1008.8
20200402133839 43 310 5.0 16.0 0.00 0.00 0.00 58 1008.8
20200402132839 43 317 5.0 14.0 0.00 0.00 0.00 59 1009.1
20200402131838 42 297 6.0 13.0 0.00 0.00 0.00 60 1009.1
20200402130837 42 321 6.0 15.0 0.00 0.00 0.00 60 1009.5
20200402125836 41 309 5.0 11.0 0.00 0.00 0.00 61 1009.1
20200402124836 41 296 4.0 11.0 0.00 0.00 0.00 62 1009.5
20200402123835 40 287 4.0 14.0 0.00 0.00 0.00 64 1009.5
20200402122834 39 275 3.0 8.0 0.00 0.00 0.00 64 1009.5
20200402121834 39 319 6.0 13.0 0.00 0.00 0.00 64 1009.8
20200402120833 38 305 5.0 11.0 0.00 0.00 0.00 65 1009.8
20200402115832 38 280 3.0 14.0 0.00 0.00 0.00 66 1009.5
20200402114832 38 289 4.0 10.0 0.00 0.00 0.00 67 1009.5
20200402113831 37 270 3.0 9.0 0.00 0.00 0.00 67 1009.5
20200402112830 37 268 3.0 12.0 0.00 0.00 0.00 68 1009.5
20200402111829 37 285 3.0 11.0 0.00 0.00 0.00 68 1009.5
20200402110828 37 287 2.0 7.0 0.00 0.00 0.00 69 1009.5
20200402105828 37 285 2.0 6.0 0.00 0.00 0.00 68 1009.5
20200402104827 37 283 2.0 5.0 0.00 0.00 0.00 68 1009.5
20200402103826 37 287 3.0 6.0 0.00 0.00 0.00 68 1009.5
20200402102825 37 269 3.0 5.0 0.00 0.00 0.00 68 1009.1
20200402101825 37 287 2.0 5.0 0.00 0.00 0.00 67 1009.1
20200402100824 37 269 2.0 5.0 0.00 0.00 0.00 67 1009.1
20200402095825 37 270 2.0 4.0 0.00 0.00 0.00 66 1009.1
20200402094822 37 289 2.0 6.0 0.00 0.00 0.00 65 1009.1
20200402093822 38 269 2.0 3.0 0.00 0.00 0.00 64 1009.1
20200402092821 38 304 1.0 8.0 0.00 0.00 0.00 64 1009.1
20200402091820 38 296 2.0 7.0 0.00 0.00 0.00 64 1009.1
20200402090820 38 295 2.0 11.0 0.00 0.00 0.00 64 1009.1
20200402085819 38 293 2.0 8.0 0.00 0.00 0.00 64 1009.1
20200402084818 38 310 3.0 8.0 0.00 0.00 0.00 64 1009.1
20200402083818 38 289 3.0 10.0 0.00 0.00 0.00 64 1009.1
20200402082817 38 293 3.0 7.0 0.00 0.00 0.00 65 1009.1
20200402081817 38 302 3.0 5.0 0.00 0.00 0.00 65 1009.1
20200402080816 38 302 3.0 6.0 0.00 0.00 0.00 65 1009.1
20200402075816 38 292 2.0 7.0 0.00 0.00 0.00 64 1009.1
20200402074815 38 296 3.0 6.0 0.00 0.00 0.00 64 1009.1
20200402073814 38 284 2.0 7.0 0.00 0.00 0.00 65 1009.1
20200402072813 38 269 2.0 4.0 0.00 0.00 0.00 65 1009.1
20200402071813 38 289 1.0 4.0 0.00 0.00 0.00 65 1009.1
20200402070812 38 295 2.0 5.0 0.00 0.00 0.00 64 1009.1
20200402065811 39 287 1.0 3.0 0.00 0.00 0.00 63 1009.1
20200402063810 39 293 2.0 5.0 0.00 0.00 0.00 63 1009.1
20200402062813 39 290 2.0 8.0 0.00 0.00 0.00 62 1009.1
20200402061809 39 301 2.0 6.0 0.00 0.00 0.00 62 1009.5
20200402060808 40 303 2.0 6.0 0.00 0.00 0.00 62 1009.5
20200402055807 40 288 2.0 5.0 0.00 0.00 0.00 61 1009.5
20200402054807 40 315 2.0 7.0 0.00 0.00 0.00 60 1009.5
20200402053806 40 318 2.0 8.0 0.00 0.00 0.00 59 1009.5
20200402052805 40 304 2.0 7.0 0.00 0.00 0.00 59 1009.5
20200402051805 40 300 3.0 10.0 0.00 0.00 0.00 59 1009.5
20200402050804 41 305 3.0 7.0 0.00 0.00 0.00 58 1009.5
20200402045803 41 308 3.0 6.0 0.00 0.00 0.00 58 1009.5
20200402044803 41 295 2.0 6.0 0.00 0.00 0.00 57 1009.5
20200402043802 41 308 2.0 6.0 0.00 0.00 0.00 57 1009.5
20200402042802 42 281 2.0 5.0 0.00 0.00 0.00 57 1009.5
20200402041801 42 279 2.0 5.0 0.00 0.00 0.00 56 1009.5
20200402040800 42 302 3.0 6.0 0.00 0.00 0.00 55 1009.5
20200402035759 42 288 4.0 7.0 0.00 0.00 0.00 55 1009.5
20200402034759 43 300 2.0 6.0 0.00 0.00 0.00 55 1009.5
20200402033758 43 297 2.0 4.0 0.00 0.00 0.00 54 1009.5
20200402032757 43 319 2.0 11.0 0.00 0.00 0.00 53 1009.5
20200402031757 44 315 3.0 8.0 0.00 0.00 0.00 51 1009.1
20200402030756 44 269 3.0 12.0 0.00 0.00 0.00 51 1009.1
20200402025755 45 293 3.0 10.0 0.00 0.00 0.00 49 1009.1
20200402024755 46 295 4.0 13.0 0.00 0.00 0.00 47 1009.1
20200402023754 46 300 5.0 14.0 0.00 0.00 0.00 48 1009.1
20200402022753 47 314 5.0 8.0 0.00 0.00 0.00 48 1008.8
20200402021753 47 305 3.0 10.0 0.00 0.00 0.00 47 1008.8
20200402020752 47 316 2.0 9.0 0.00 0.00 0.00 47 1008.8
20200402015751 48 309 3.0 8.0 0.00 0.00 0.00 47 1008.8
20200402014751 48 307 4.0 11.0 0.00 0.00 0.00 48 1008.8
20200402013751 48 320 4.0 7.0 0.00 0.00 0.00 51 1008.8
20200402012749 48 293 3.0 7.0 0.00 0.00 0.00 51 1008.5
20200402011748 48 307 3.0 7.0 0.00 0.00 0.00 50 1008.5
20200402010747 49 294 3.0 6.0 0.00 0.00 0.00 51 1008.5
20200402005747 49 310 2.0 4.0 0.00 0.00 0.00 51 1008.5
20200402004746 50 338 3.0 6.0 0.00 0.00 0.00 49 1008.5
20200402003745 50 316 3.0 8.0 0.00 0.00 0.00 49 1008.5
20200402002745 50 322 4.0 8.0 0.00 0.00 0.00 49 1008.1
20200402001745 50 318 3.0 6.0 0.00 0.00 0.00 49 1008.1
20200402000744 51 304 2.0 6.0 0.00 0.00 0.00 48 1007.8
20200401235743 51 320 4.0 7.0 0.00 0.00 0.00 48 1007.8
20200401234742 51 322 2.0 9.0 0.00 0.00 0.00 48 1007.8
20200401233742 51 305 3.0 11.0 0.00 0.00 0.00 47 1007.8
20200401232741 51 340 3.0 6.0 0.00 0.00 0.00 47 1007.5
20200401231740 52 325 2.0 9.0 0.00 0.00 0.00 47 1007.5
20200401230740 52 312 3.0 9.0 0.00 0.00 0.00 47 1007.5
20200401225739 52 307 4.0 8.0 0.00 0.00 0.00 47 1007.5
20200401224738 53 327 5.0 12.0 0.00 0.00 0.00 46 1007.1
20200401223738 53 315 3.0 11.0 0.00 0.00 0.00 45 1007.1
20200401222737 53 302 2.0 12.0 0.00 0.00 0.00 46 1007.1
20200401221736 53 312 3.0 10.0 0.00 0.00 0.00 47 1006.8
20200401220736 53 311 4.0 8.0 0.00 0.00 0.00 47 1006.8
20200401215735 53 316 3.0 7.0 0.00 0.00 0.00 47 1006.8
20200401214734 53 291 3.0 10.0 0.00 0.00 0.00 48 1006.8
20200401213734 53 289 3.0 11.0 0.00 0.00 0.00 48 1006.8
20200401212733 53 349 3.0 7.0 0.00 0.00 0.00 48 1006.8
20200401211731 53 320 2.0 5.0 0.00 0.00 0.00 50 1006.8
20200401210731 53 344 3.0 10.0 0.00 0.00 0.00 49 1006.8
20200401205730 54 326 3.0 11.0 0.00 0.00 0.00 47 1006.8
20200401204729 54 297 4.0 6.0 0.00 0.00 0.00 50 1006.8
20200401203729 52 286 3.0 7.0 0.00 0.00 0.00 51 1006.8
20200401202728 52 329 5.0 10.0 0.00 0.00 0.00 50 1006.8
20200401201727 52 326 5.0 8.0 0.00 0.00 0.00 50 1006.8
20200401200726 52 281 3.0 8.0 0.00 0.00 0.00 51 1006.8
20200401195726 53 337 4.0 9.0 0.00 0.00 0.00 49 1006.8
20200401194725 52 317 3.0 9.0 0.00 0.00 0.00 51 1006.8